GW6907 Weather Reports


time (UTC)temp
F
wind
direction
speed
knots
gust
knots
rain 1hr
in
rain 24hr
in
rain mn
in
humidity
%
barometer
mb
20260502234551 64 70 5.2 8.7 0.00 0.00 0.00 33 1015.7
20260502233042 65 17 5.2 10.4 0.00 0.00 0.00 33 1016.0
20260502231544 64 46 3.5 7.0 0.00 0.00 0.00 33 1016.0
20260502230047 64 88 1.7 6.1 0.00 0.00 0.00 34 1016.2
20260502224545 65 64 3.5 8.7 0.00 0.00 0.00 33 1016.4
20260502223042 67 110 4.3 7.8 0.00 0.00 0.00 32 1016.4
20260502221543 65 114 1.7 3.5 0.00 0.00 0.00 34 1016.6
20260502220053 64 20 0.9 6.1 0.00 0.00 0.00 34 1017.0
20260502214545 66 206 4.3 7.8 0.00 0.00 0.00 33 1017.3
20260502213045 66 151 3.5 10.4 0.00 0.00 0.00 33 1017.3
20260502211547 66 153 3.5 8.7 0.00 0.00 0.00 34 1017.5
20260502210054 65 223 3.5 12.2 0.00 0.00 0.00 34 1017.6
20260502204542 65 226 4.3 9.6 0.00 0.00 0.00 35 1017.9
20260502203101 64 189 3.5 8.7 0.00 0.00 0.00 36 1018.2
20260502201547 63 243 3.5 8.7 0.00 0.00 0.00 37 1018.5
20260502200045 64 252 1.7 7.0 0.00 0.00 0.00 37 1018.6
20260502194550 62 328 2.6 7.8 0.00 0.00 0.00 40 1018.7
20260502193053 62 249 0.9 7.8 0.00 0.00 0.00 39 1018.9
20260502191543 62 179 3.5 10.4 0.00 0.00 0.00 40 1019.0
20260502190047 62 264 3.5 7.8 0.00 0.00 0.00 41 1019.1
20260502184546 61 269 3.5 6.1 0.00 0.00 0.00 40 1019.5
20260502183053 60 129 4.3 8.7 0.00 0.00 0.00 42 1019.8
20260502181540 60 78 5.2 9.6 0.00 0.00 0.00 41 1019.9
20260502163105 57 45 4.3 13.9 0.00 0.00 0.00 46 1020.2
20260502161545 56 74 4.3 13.0 0.00 0.00 0.00 46 1020.3
20260502151544 54 29 7.8 11.3 0.00 0.00 0.00 50 1020.4
20260502123057 49 304 16.5 21.7 0.00 0.00 0.00 60 1018.8
20260502121546 49 316 17.4 20.0 0.00 0.00 0.00 60 1018.8
20260502114548 49 311 18.2 23.5 0.00 0.00 0.00 59 1018.5
20260502113042 49 309 17.4 23.5 0.00 0.00 0.00 59 1018.5
20260502111549 49 312 15.6 23.5 0.00 0.00 0.00 59 1018.5
20260502110044 49 304 19.1 25.2 0.00 0.00 0.00 58 1018.3
20260502104545 49 307 18.2 25.2 0.00 0.00 0.00 59 1018.2
20260502103044 49 312 18.2 22.6 0.00 0.00 0.00 59 1018.1
20260502101541 49 302 14.8 21.7 0.00 0.00 0.00 59 1018.1
20260502070052 46 289 3.5 6.1 0.00 0.00 0.00 49 1016.6
20260502064547 48 280 4.3 6.1 0.00 0.00 0.00 49 1016.5
20260502063051 48 295 5.2 7.0 0.00 0.00 0.00 47 1016.5
20260502061546 48 262 4.3 6.1 0.00 0.00 0.00 46 1016.4
20260502060054 48 275 4.3 6.1 0.00 0.00 0.00 47 1016.4
20260502054552 50 281 3.5 6.1 0.00 0.00 0.00 41 1016.4
20260502053043 51 271 3.5 4.3 0.00 0.00 0.00 40 1016.4
20260502051550 51 291 3.5 5.2 0.00 0.00 0.00 38 1016.4
20260502050046 51 269 2.6 5.2 0.00 0.00 0.00 37 1016.3
20260502044553 50 278 4.3 7.0 0.00 0.00 0.00 40 1016.3
20260502043050 52 277 5.2 9.6 0.00 0.00 0.00 37 1016.1
20260502041548 53 288 6.1 7.8 0.00 0.00 0.00 34 1016.2
20260502040045 52 295 4.3 7.8 0.00 0.00 0.00 36 1016.2
20260502034547 51 262 4.3 4.3 0.00 0.00 0.00 38 1016.0
20260502033045 53 277 3.5 8.7 0.00 0.00 0.00 38 1016.0
20260502031550 54 271 5.2 7.8 0.00 0.00 0.00 34 1015.9
20260502030044 55 269 3.5 6.1 0.00 0.00 0.00 33 1015.5
20260502024543 57 274 2.6 6.1 0.00 0.00 0.00 31 1015.4
20260502023043 59 287 3.5 7.0 0.00 0.00 0.00 28 1015.3
20260502021548 60 269 2.6 6.1 0.00 0.00 0.00 30 1015.2
20260502020044 60 281 2.6 4.3 0.00 0.00 0.00 33 1015.2
20260502014554 63 323 4.3 7.0 0.00 0.00 0.00 28 1015.1
20260502013041 67 306 4.3 7.0 0.00 0.00 0.00 25 1015.2
20260502011546 69 309 3.5 9.6 0.00 0.00 0.00 22 1015.1
20260502010042 72 292 7.0 11.3 0.00 0.00 0.00 16 1015.0
20260502004545 72 311 6.1 9.6 0.00 0.00 0.00 17 1015.0
20260502003040 73 323 5.2 9.6 0.00 0.00 0.00 16 1015.0
20260502001546 73 293 4.3 7.0 0.00 0.00 0.00 15 1014.9
20260502000054 73 356 4.3 7.0 0.00 0.00 0.00 17 1015.1